Location: Luna
(33.8188°N, 108.9564°W)
Time: 07:38:47
(UTC+00:00)

SL-16 Debris - Pass Details

Date: 01 December 2023
Orbit: 836 x 1141 km, 71.0° (Epoch: 25 February)

Event Time Altitude Azimuth Distance (km) Brightness Sun altitude
Rises 02:31:14 0° 337° (NNW) 3,713 ? -29.4°
Reaches altitude 10° 02:33:43 10° 337° (NNW) 2,804 ? -29.9°
Maximum altitude 02:40:20 80° 251° (WSW) 1,089 ? -31.3°
Enters shadow 02:42:06 53° 175° (S) 1,305 ? -31.6°
